{"data":{"norad_id":65517,"epoch":"2026-05-24T20:07:11.515008Z","epoch_age_seconds":82313,"freshness":"FRESH","line1":"1 65517U 25198AB  26144.83832772  .00035067  00000+0  10440-2 0  9997","line2":"2 65517  53.1591 276.2358 0001059  79.1852 280.9270 15.34404795 40295","mean_motion":15.34404795,"eccentricity":0.0001059,"inclination_deg":53.1591,"raan_deg":276.2358,"arg_perigee_deg":79.1852,"mean_anomaly_deg":280.927,"bstar":0.001044,"rev_number":4029,"period_min":93.847464808007,"perigee_km":461.96454502154,"apogee_km":463.4134319659,"semimajor_km":6840.8259884937,"source":"CELESTRAK","updated_at":"2026-05-25T13:38:20.845105Z"}}